Date String (YYYY-MM-DD hh:mm:ss) UTC,Instrument flags,Ambient pressure (hPa),Sample flow (lpm),Bypass flow (lpm),Sample temperature (°C),Ambient temperature (°C),ASC tube jacket temperature (°C),LED temperature (°C),Box temperature (°C),Sample RH (%),Span deviation,Mass concentration (μg/m³),Mass concentration (μg/m³),Mass concentration (μg/m³)
DateTimeUTC,F1_M11,P_M11,Q1_M11,Q2_M11,T1_M11,T2_M11,T3_M11,T4_M11,T5_M11,U1_M11,ZSPAN_M11,X2_M11,X0_M11,X1_M11
2021-09-19 10:00:00,,0824.5,5.00,0.00,29.7,28.8,00.0,38.7,31.5,17.9,0000.0,0001.19,0002.49,0000.93
2021-09-19 10:01:00,,0824.5,5.00,0.00,29.8,28.8,00.0,38.7,31.5,17.9,0000.0,0001.15,0002.39,0000.93
2021-09-19 10:02:00,,0824.5,5.00,0.00,29.7,27.5,00.0,38.8,31.2,18.0,0000.0,0001.14,0002.39,0000.93
2021-09-19 10:03:00,,0824.4,5.00,0.00,29.6,26.3,00.0,38.7,30.9,18.2,0000.0,0001.11,0002.36,0000.92
2021-09-19 10:04:00,,0824.4,5.00,0.00,29.5,26.4,00.0,38.7,31.0,18.1,0000.0,0001.10,0002.39,0000.91
2021-09-19 10:05:00,,0824.3,4.99,0.00,29.4,26.8,00.0,38.7,31.0,18.2,0000.0,0001.09,0001.63,0000.91
2021-09-19 10:06:00,,0824.4,5.00,0.00,29.4,27.2,00.0,38.6,31.0,18.1,0000.0,0001.08,0001.55,0000.90
2021-09-19 10:07:00,,0824.4,5.00,0.00,29.4,27.5,00.0,38.6,31.1,18.1,0000.0,0001.06,0001.51,0000.88
2021-09-19 10:08:00,,0824.4,5.00,0.00,29.5,27.8,00.0,38.6,31.2,18.1,0000.0,0001.04,0001.49,0000.87
2021-09-19 10:09:00,,0824.4,5.01,0.00,29.5,28.0,00.0,38.6,31.2,18.1,0000.0,0001.03,0001.51,0000.84
2021-09-19 10:10:00,,0824.4,4.99,0.00,29.5,28.2,00.0,38.6,31.2,18.0,0000.0,0001.02,0001.98,0000.84
2021-09-19 10:11:00,,0824.4,5.01,0.00,29.5,28.3,00.0,38.6,31.3,18.0,0000.0,0001.01,0002.22,0000.82
2021-09-19 10:12:00,,0824.4,4.99,0.00,29.6,28.4,00.0,38.6,31.4,18.1,0000.0,0001.01,0002.18,0000.82
2021-09-19 10:13:00,,0824.4,5.00,0.00,29.6,28.5,00.0,38.6,31.4,18.0,0000.0,0001.02,0002.22,0000.82
2021-09-19 10:14:00,,0824.4,5.00,0.00,29.6,28.6,00.0,38.6,31.4,18.1,0000.0,0001.05,0002.30,0000.82
2021-09-19 10:15:00,,0824.4,5.00,0.00,29.7,28.7,00.0,38.7,31.5,18.0,0000.0,0001.05,0002.23,0000.82
2021-09-19 10:16:00,,0824.3,5.00,0.00,29.7,28.8,00.0,38.7,31.5,18.0,0000.0,0001.04,0002.18,0000.82
2021-09-19 10:17:00,,0824.3,4.97,0.00,29.7,28.8,00.0,38.7,31.5,18.1,0000.0,0001.04,0002.17,0000.82
2021-09-19 10:18:00,,0824.3,5.00,0.00,29.8,28.9,00.0,38.7,31.6,18.6,0000.0,0001.03,0002.17,0000.81
2021-09-19 10:19:00,,0824.3,5.00,0.00,29.8,28.9,00.0,38.7,31.6,19.3,0000.0,0001.02,0002.15,0000.80
2021-09-19 10:20:00,,0824.3,5.01,0.00,29.8,28.9,00.0,38.8,31.6,19.6,0000.0,0000.95,0002.02,0000.78
2021-09-19 10:21:00,,0824.3,5.00,0.00,29.9,28.8,00.0,38.8,31.6,19.7,0000.0,0000.98,0001.82,0000.76
2021-09-19 10:22:00,,0824.3,5.00,0.00,29.8,27.1,00.0,38.8,31.2,19.8,0000.0,0000.96,0001.45,0000.74
2021-09-19 10:23:00,,0824.3,4.99,0.00,29.6,26.4,00.0,38.8,31.0,20.1,0000.0,0000.94,0001.46,0000.72
2021-09-19 10:24:00,,0824.3,5.00,0.00,29.6,26.6,00.0,38.8,31.0,20.2,0000.0,0000.93,0001.49,0000.70
2021-09-19 10:25:00,,0824.3,5.01,0.00,29.5,27.0,00.0,38.7,31.1,20.3,0000.0,0000.91,0001.43,0000.68
2021-09-19 10:26:00,,0824.3,5.00,0.00,29.5,27.3,00.0,38.7,31.1,20.3,0000.0,0000.90,0001.47,0000.67
2021-09-19 10:27:00,,0824.3,4.98,0.00,29.5,27.6,00.0,38.7,31.2,20.3,0000.0,0000.90,0001.48,0000.65
2021-09-19 10:28:00,,0824.4,5.00,0.00,29.5,27.9,00.0,38.6,31.2,20.3,0000.0,0000.88,0001.47,0000.63
2021-09-19 10:29:00,,0824.4,5.01,0.00,29.5,28.1,00.0,38.6,31.3,20.3,0000.0,0000.87,0001.48,0000.61
2021-09-19 10:30:00,,0824.4,4.99,0.00,29.6,28.2,00.0,38.7,31.3,20.3,0000.0,0000.87,0001.51,0000.61
2021-09-19 10:31:00,,0824.5,5.00,0.00,29.6,28.3,00.0,38.7,31.3,20.3,0000.0,0000.90,0001.68,0000.61
2021-09-19 10:32:00,,0824.5,5.01,0.00,29.6,28.4,00.0,38.7,31.3,20.3,0000.0,0000.88,0001.91,0000.61
2021-09-19 10:33:00,,0824.5,4.99,0.00,29.6,28.5,00.0,38.7,31.4,20.3,0000.0,0000.88,0001.92,0000.60
2021-09-19 10:34:00,,0824.4,5.01,0.00,29.7,28.6,00.0,38.7,31.4,20.2,0000.0,0000.89,0001.90,0000.60
2021-09-19 10:35:00,,0824.4,4.99,0.00,29.7,28.6,00.0,38.7,31.4,20.2,0000.0,0000.88,0001.92,0000.61
2021-09-19 10:36:00,,0824.4,5.01,0.00,29.7,28.7,00.0,38.7,31.5,20.1,0000.0,0000.85,0001.86,0000.61
2021-09-19 10:37:00,,0824.4,4.99,0.00,29.7,28.8,00.0,38.7,31.5,20.0,0000.0,0000.82,0001.75,0000.60
2021-09-19 10:38:00,,0824.4,5.01,0.00,29.8,28.8,00.0,38.8,31.6,19.9,0000.0,0000.82,0001.74,0000.61
2021-09-19 10:39:00,,0824.5,5.00,0.00,29.8,28.9,00.0,38.8,31.6,19.8,0000.0,0000.86,0001.85,0000.62
2021-09-19 10:40:00,,0824.4,5.00,0.00,29.8,28.9,00.0,38.8,31.6,19.9,0000.0,0000.89,0001.88,0000.63
2021-09-19 10:41:00,,0824.5,5.01,0.00,29.8,28.9,00.0,38.8,31.6,19.9,0000.0,0000.88,0001.90,0000.63
2021-09-19 10:42:00,,0824.4,4.99,0.00,29.8,29.0,00.0,38.8,31.6,19.9,0000.0,0000.88,0001.80,0000.63
2021-09-19 10:43:00,,0824.4,5.01,0.00,29.8,28.7,00.0,38.8,31.5,19.8,0000.0,0000.86,0001.58,0000.62
2021-09-19 10:44:00,,0824.4,4.98,0.00,29.7,26.8,00.0,38.8,31.1,19.8,0000.0,0000.88,0001.61,0000.62
2021-09-19 10:45:00,,0824.4,5.02,0.00,29.6,26.3,00.0,38.8,30.9,19.8,0000.0,0000.89,0001.62,0000.62
2021-09-19 10:46:00,,0824.4,5.01,0.00,29.5,26.6,00.0,38.7,30.9,19.9,0000.0,0000.88,0001.50,0000.62
2021-09-19 10:47:00,,0824.3,4.99,0.00,29.4,26.9,00.0,38.7,31.0,19.9,0000.0,0000.90,0001.56,0000.63
2021-09-19 10:48:00,,0824.3,5.00,0.00,29.4,27.3,00.0,38.7,31.0,20.1,0000.0,0000.90,0001.57,0000.62
2021-09-19 10:49:00,,0824.3,5.00,0.00,29.4,27.6,00.0,38.7,31.1,20.0,0000.0,0000.91,0001.58,0000.63
2021-09-19 10:50:00,,0824.3,4.99,0.00,29.5,27.8,00.0,38.6,31.2,19.9,0000.0,0000.88,0001.45,0000.63
2021-09-19 10:51:00,,0824.3,5.01,0.00,29.5,28.0,00.0,38.6,31.2,19.9,0000.0,0000.87,0001.45,0000.63
2021-09-19 10:52:00,,0824.4,5.00,0.00,29.5,28.2,00.0,38.6,31.3,19.9,0000.0,0000.89,0001.42,0000.63
2021-09-19 10:53:00,,0824.3,4.99,0.00,29.5,28.3,00.0,38.6,31.3,19.8,0000.0,0000.87,0001.36,0000.63
2021-09-19 10:54:00,,0824.4,5.00,0.00,29.6,28.4,00.0,38.6,31.3,19.7,0000.0,0000.85,0001.20,0000.63
2021-09-19 10:55:00,,0824.4,5.01,0.00,29.6,28.5,00.0,38.7,31.4,19.7,0000.0,0000.84,0001.19,0000.64
2021-09-19 10:56:00,,0824.5,5.01,0.00,29.6,28.6,00.0,38.7,31.4,19.6,0000.0,0000.83,0001.20,0000.64
2021-09-19 10:57:00,,0824.4,5.00,0.00,29.6,28.6,00.0,38.7,31.4,19.4,0000.0,0000.83,0001.21,0000.63
2021-09-19 10:58:00,,0824.4,5.00,0.00,29.7,28.7,00.0,38.7,31.5,19.4,0000.0,0000.82,0001.19,0000.62
2021-09-19 10:59:00,,0824.5,5.00,0.00,29.7,28.8,00.0,38.7,31.5,19.4,0000.0,0000.83,0001.21,0000.62
